sat.trackr.live / text

‹ back to catalog

YAOGAN-30 03A

NORAD 43028 · 2017-075A

PAYLOAD ACTIVE UNKNOWN

§ Identity

Operator
Country
PRC
Launch date
2017-11-24
Launch site
XICLF
Launch vehicle
Mass (kg)
RCS (m²)

External: N2YO · Heavens-Above · Gunter

§ Orbital elements

Epoch: 2026-05-25T03:51:51.187104Z

Period
95.83 min
Inclination
34.9955°
Eccentricity
0.0000905
Mean motion
15.02680444 rev/d
Perigee alt
558.0 km
Apogee alt
559.3 km
Semi-major
6,936.8 km
B*
1.8335e-4
RAAN
50.8917°
Arg perigee
120.7045°
Mean anomaly
239.3753°
Rev number
46,378

§ Raw data

YAOGAN-30 03A1 43028U 17075A   26145.16100911  .00002467  00000+0  18335-3 0  99952 43028  34.9955  50.8917 0000905 120.7045 239.3753 15.02680444463781

JSON: /api/v1/satellites/43028 · /tle

For live sub-satellite position, see the globe view (requires WebGL).

§ Visibility from observer

Set your observer location to see the next 7 days of passes ≥ 10°. The values pass through the URL so the page stays shareable.

No JS? Fill the form by hand. The geolocation button needs JavaScript.